This is the latest recevied weather packets stored in our database for station/object WV5G-13. If no packets are shown the sender has not sent any weather packets the latest 10 day(s).
| Time | Temp. | Humidity | Pressure | Rain* | Wind** | Luminosity | Snow |
|---|---|---|---|---|---|---|---|
| 1778113350 | 14.44° C | 46% | 1013 hPa | 0 mm | - | 108 W/m² | - |
| 1778113047 | 15° C | 46% | 1013.1 hPa | 0 mm | - | 123 W/m² | - |
| 1778112745 | 14.44° C | 46% | 1012.9 hPa | 0 mm | - | 135 W/m² | - |
| 1778112441 | 14.44° C | 47% | 1012.9 hPa | 0 mm | - | 151 W/m² | - |
| 1778112136 | 14.44° C | 47% | 1012.3 hPa | 0 mm | - | 169 W/m² | - |
| 1778111834 | 15.56° C | 45% | 1012.8 hPa | 0 mm | - | 182 W/m² | - |
| 1778111529 | 15° C | 46% | 1012.5 hPa | 0 mm | - | 195 W/m² | - |
| 1778111226 | 15° C | 46% | 1012.2 hPa | 0 mm | - | 200 W/m² | - |
| 1778110924 | 15° C | 46% | 1012.3 hPa | 0 mm | - | 217 W/m² | - |
| 1778110621 | 15° C | 46% | 1012.6 hPa | 0 mm | - | 237 W/m² | - |
| 1778110318 | 15° C | 46% | 1012.8 hPa | 0 mm | - | 255 W/m² | - |
| 1778110014 | 15.56° C | 45% | 1012.8 hPa | 0 mm | - | 277 W/m² | - |
| 1778109709 | 15° C | 46% | 1012.7 hPa | 0 mm | - | 292 W/m² | - |
| 1778109406 | 15° C | 47% | 1012.8 hPa | 0 mm | - | 306 W/m² | - |
| 1778109105 | 15° C | 47% | 1012.7 hPa | 0 mm | - | 325 W/m² | - |
| 1778108801 | 15° C | 47% | 1012.8 hPa | 0 mm | - | 345 W/m² | - |
| 1778108498 | 15° C | 46% | 1012.7 hPa | 0 mm | - | 390 W/m² | - |
| 1778108195 | 15° C | 47% | 1012.7 hPa | 0 mm | - | 398 W/m² | - |
| 1778107891 | 15° C | 46% | 1012.6 hPa | 0 mm | - | 415 W/m² | - |
| 1778107588 | 15° C | 46% | 1012.7 hPa | 0 mm | - | 426 W/m² | - |
| 1778107285 | 15° C | 47% | 1013 hPa | 0 mm | - | 438 W/m² | - |
| 1778106981 | 14.44° C | 47% | 1012.8 hPa | 0 mm | - | 454 W/m² | - |
| 1778106677 | 15° C | 47% | 1012.7 hPa | 0 mm | - | 466 W/m² | - |
| 1778106374 | 14.44° C | 48% | 1012.9 hPa | 0 mm | - | 473 W/m² | - |
| 1778106070 | 14.44° C | 48% | 1013 hPa | 0 mm | - | 485 W/m² | - |
* Rain latest hour (hover to see other rain measurements)
** Current wind speed in m/s (hover to see current wind gust speed)